Regional Weather Roundup
Issued by NWS

Home | Current Version | Previous Version | Text Only | Print | Product List | Glossary Off
Versions: 1 2 3 4 5 6 7 8 9 10 11 12 13 14 15 16 17 18 19 20 21 22 23 24 25 26 27 28 29 30 31 32 33 34 35 36 37 38 39 40 41 42 43 44 45 46 47 48 49 50

000
ASUS43 KDTX 290810
RWRMI
MICHIGAN HOURLY REGIONAL WEATHER ROUNDUP
NATIONAL WEATHER SERVICE DETROIT/PONTIAC MI
400 AM EDT FRI JUL 29 2016

NOTE: "FAIR" INDICATES FEW OR NO CLOUDS BELOW 12,000 FEET WITH NO
SIGNIFICANT WEATHER AND/OR OBSTRUCTION TO VISIBILITY.

MIZ047>049-052>055-059>063-066>070-074>076-081>083-290900-
SOUTHEAST LOWER MICHIGAN

CITY           SKY/WX    TMP DP  RH WIND       PRES   REMARKS
ADRIAN         CLOUDY    66  65  96 N6        29.95R
ALMA           CLOUDY    68  67  94 N7        29.98S
ANN ARBOR      PTCLDY    67  58  72 CALM      29.93S
BAD AXE        CLOUDY    66  61  83 NE6       29.97F
CARO           MOCLDY    67  62  86 CALM      29.96F
DETROIT CITY   PTCLDY    70  64  81 N6        29.93S
DETROIT        CLOUDY    69  57  65 N7        29.94R
FLINT          CLOUDY    70  61  73 NE7       29.96S
GROSSE ILE     PTCLDY    69  61  74 N3        29.91S
HILLSDALE      CLOUDY    66  64  91 E3        29.94F
HOWELL         PTCLDY    67  61  83 CALM      29.95S

CITY           SKY/WX    TMP DP  RH WIND       PRES   REMARKS
JACKSON        CLOUDY    67  64  90 NE5       29.94F
LAMBERTVILLE   CLEAR     70  61  73 CALM      29.93R
LANSING        CLOUDY    67  61  81 CALM      29.97R
LAPEER         FAIR      65  62  90 N5        29.95F
MASON          MOCLDY    64  62  91 NW6       29.96R
MONROE         CLEAR     66  62  86 N6        29.92R
MT. CLEMENS    CLOUDY    67  64  90 N7        29.91F
PONTIAC        CLOUDY    68  63  84 NE5       29.94S
PORT HOPE        N/A     71  65  81 NE20      29.96S
PORT HURON     MOCLDY    64  63  94 W3        29.94S
TRI CITIES     LGT RAIN  68  66  93 N6        29.97F
MIDLAND        LGT RAIN  65  60  84 N6        29.97F
TROY           CLOUDY    71  62  73 CALM      29.95S
SAGINAW HB     CLOUDY    68  63  83 N6        29.96S
$$
MIZ043>046-050>051-056>058-064>065-071>073-077>080-290900-
SOUTHWEST LOWER MICHIGAN

CITY           SKY/WX    TMP DP  RH WIND       PRES   REMARKS
BATTLE CREEK   CLOUDY    68  64  87 E6        29.94S
BENTON HARBOR  CLEAR     67  64  90 E3        29.92S
BIG RAPIDS     CLOUDY    65  64  96 NE3       29.99S
COLDWATER      CLOUDY    69  64  85 E5        29.93F
FREMONT        RAIN      67  67 100 NW6       29.98R
HOLLAND        MOCLDY    68  62  81 E5        29.94F
GRAND RAPIDS   CLOUDY    68  61  78 E7        29.96R
IONIA          FAIR      66  60  79 NE7       29.95S
KALAMAZOO      CLOUDY    69  65  86 NE3       29.94R
LUDINGTON      RAIN      65  65 100 E7        29.97S
MARSHALL       CLOUDY    69  64  85 CALM      29.94S
MOUNT PLEASANT MOCLDY    65  61  85 N3        29.98S
MUSKEGON       LGT RAIN  68  65  90 NE10      29.96S
SOUTH HAVEN    CLOUDY    68  67  96 E3        29.93S
$$
MIZ016>042-290900-
NORTHERN LOWER MICHIGAN

CITY           SKY/WX    TMP DP  RH WIND       PRES   REMARKS
ALPENA         CLOUDY    66  54  65 E6        30.03S
BEAVER ISLAND  PTCLDY    63  59  88 E7        30.04S
BELLAIRE       CLOUDY    62  56  82 CALM      30.02R
CADILLAC       RAIN      61  59  94 NE6       30.03F
CHARLEVOIX     CLOUDY    66  57  71 E8        30.06R
FRANKFORT      HVY RAIN  64  61  88 E6        30.02S
GAYLORD        PTCLDY    62  54  74 NE7       30.04R
GRAYLING       CLOUDY    64  56  77 CALM      30.04R
HARBOR SPRINGS PTCLDY    62  57  84 NE6       30.04R
HOUGHTON LAKE  CLOUDY    64  58  80 NE3       30.03R
MANISTEE       LGT RAIN  64  62  93 E9        30.00R
OSCODA         CLOUDY    69  59  72 NE9G17    29.99S
PELLSTON       CLOUDY    53  51  93 W3        30.05R
ROGERS CITY    MOCLDY    67  56  67 E9        30.05R
TRAVERSE CITY  CLOUDY    67  63  87 CALM      30.02R
$$
MIZ007>008-015-290900-
EASTERN UPPER MICHIGAN

CITY           SKY/WX    TMP DP  RH WIND       PRES   REMARKS
KINROSS        CLEAR     60  54  80 E6        30.06R
MACKINAC ISLAN PTCLDY    64  56  76 E10       30.05R
NEWBERRY       CLOUDY    54  54 100 NE5       30.06S
S. S. MARIE    PTCLDY    61  53  75 CALM      30.06R
MUNISING         N/A     54  53  97 S7        30.05F
$$
MIZ004>006-011>014-085-290900-
CENTRAL UPPER MICHIGAN

CITY           SKY/WX    TMP DP  RH WIND       PRES   REMARKS
MANISTIQUE     PTCLDY    55  55 100 NE5       30.04S
ESCANABA       MOCLDY    57  54  88 N6        30.03S
MENOMINEE      CLOUDY   N/A N/A N/A N6        30.04F
SAWYER-GWINN   CLEAR     55  53  94 N7        30.07F
$$
MIZ001>003-009>011-084-290900-
WESTERN UPPER MICHIGAN

CITY           SKY/WX    TMP DP  RH WIND       PRES   REMARKS
IRON MOUNTAIN  CLOUDY    53  49  86 CALM      30.06S
HOUGHTON       CLEAR     57  50  77 N8        30.09R
COPPER HARBOR    N/A     55  53  93 W5        30.09R
IRONWOOD       CLEAR     45  45 100 CALM      30.10S
$$

ABBREVIATIONS USED IN REMARKS
   TC - TEMPERATURE IN CELSIUS
  WCI - WIND CHILL INDEX
   HX - HEAT INDEX
  VSB - VISIBILITY




USA.gov is the U.S. government's official web portal to all federal, state and local government web resources and services.